Great Falls, MT

7:51 AM MST on December 03, 2016 (GMT -0700)
Great Falls International

Weather History for KGTF - November, 2014

Change the Weather History Date:

Sunday, November 16, 2014

  Actual Average Record
Temperature  
Mean Temperature 19 °F 33 °F  
Max Temperature 30 °F 43 °F 66 °F (2001)
Min Temperature 8 °F 23 °F -17 °F (1959)
Degree Days  
Heating Degree Days 46 32  
Month to date heating degree days 617 461  
Since 1 July heating degree days 1349 1481  
Cooling Degree Days 0 0  
Month to date cooling degree days 0 0  
Year to date cooling degree days 350 298  
Moisture  
Dew Point 14 °F    
Average Humidity 76    
Maximum Humidity 96    
Minimum Humidity 55    
Precipitation  
Precipitation 0.01 in 0.02 in 0.35 in (2010)
Month to date precipitation 0.63 0.32  
Year to date precipitation 18.28 13.93  
Snow  
Snow 0.10 in 0.30 in 3.80 in (2010)
Month to date snowfall 6.3 3.9  
Since 1 July snowfall 7.4 9.5  
Since 1 September snowfall 7.4 9.2  
Snow Depth 3.00 in    
Sea Level Pressure  
Sea Level Pressure 30.49 in    
Wind  
Wind Speed 12 mph (WSW)    
Max Wind Speed 31 mph    
Max Gust Speed 37 mph    
Visibility 9 miles    
Events Snow    
T = Trace of Precipitation, MM = Missing Value Source: NWS Daily Summary

Daily Weather History Graph

Daily Weather History Graph

Search for Another Location

Airport or City:

Trip Planner

Search our weather history database for the weather conditions in past years. The results will help you decide how hot, cold, wet, or windy it might be!

Date:

Astronomy

Nov. 16, 2014 Rise Set
Actual Time 7:31 AM MST 4:48 PM MST
Civil Twilight 6:58 AM MST 5:21 PM MST
Nautical Twilight 6:20 AM MST 5:59 PM MST
Astronomical Twilight 5:44 AM MST 6:35 PM MST
Moon 1:17 AM MST (11/16) 2:05 PM MST (11/16)
Length of Visible Light 10h 23m
Length of Day
9h 16m
Waning Crescent, 30% of the Moon is Illuminated
Nov 16
Waning Crescent
Nov 22
New
Nov 29
First Quarter
Dec 6
Full
Dec 14
Last Quarter

Hourly Weather History & Observations

Time (MST) Temp. Windchill Dew Point Humidity Pressure Visibility Wind Dir Wind Speed Gust Speed Precip Events Conditions
12:53 AM 18.0 °F -0.2 °F 6.1 °F 60% 30.35 in 10.0 mi SSW 25.3 mph 32.2 mph N/A   Overcast
1:53 AM 19.0 °F 1.3 °F 7.0 °F 59% 30.34 in 10.0 mi SSW 25.3 mph 34.5 mph N/A   Overcast
2:53 AM 19.9 °F 4.3 °F 9.0 °F 62% 30.38 in 10.0 mi SSW 19.6 mph - N/A   Overcast
3:53 AM 24.1 °F 10.6 °F 10.9 °F 57% 30.40 in 10.0 mi WSW 17.3 mph 24.2 mph N/A   Overcast
4:53 AM 27.0 °F 12.8 °F 17.1 °F 66% 30.46 in 10.0 mi NW 21.9 mph 29.9 mph N/A   Overcast
5:53 AM 27.0 °F 14.3 °F 19.0 °F 72% 30.49 in 10.0 mi WNW 17.3 mph - N/A   Overcast
6:53 AM 24.1 °F 11.5 °F 16.0 °F 71% 30.52 in 8.0 mi West 15.0 mph - 0.00 in Snow Light Snow
7:53 AM 23.0 °F 12.4 °F 16.0 °F 74% 30.54 in 7.0 mi WSW 10.4 mph - 0.00 in Snow Light Snow
8:48 AM 23.0 °F 10.6 °F 14.0 °F 68% 30.35 in 5.0 mi WSW 13.8 mph - 0.01 in Snow Light Snow
8:53 AM 23.0 °F 10.6 °F 14.0 °F 68% 30.56 in 5.0 mi WSW 13.8 mph - 0.01 in Snow Light Snow
9:53 AM 23.0 °F 10.6 °F 18.0 °F 81% 30.57 in 9.0 mi SW 13.8 mph - 0.00 in   Overcast
10:07 AM 24.8 °F 12.9 °F 17.6 °F 74% 30.37 in 10.0 mi WSW 13.8 mph - N/A   Overcast
10:41 AM 24.8 °F 11.1 °F 21.2 °F 86% 30.38 in 6.0 mi WSW 18.4 mph - 0.00 in Snow Light Snow
10:50 AM 23.0 °F 9.6 °F 21.2 °F 93% 30.38 in 9.0 mi West 16.1 mph - 0.00 in   Overcast
10:53 AM 23.0 °F 10.6 °F 21.0 °F 92% 30.58 in 10.0 mi West 13.8 mph - 0.00 in   Overcast
11:53 AM 25.0 °F 11.7 °F 19.0 °F 78% 30.57 in 10.0 mi West 17.3 mph - N/A   Mostly Cloudy
12:53 PM 27.0 °F 16.7 °F 19.0 °F 72% 30.56 in 10.0 mi WSW 11.5 mph - N/A   Overcast
1:53 PM 28.0 °F 18.6 °F 19.0 °F 69% 30.55 in 10.0 mi WNW 10.4 mph - N/A   Overcast
2:21 PM 28.4 °F 18.0 °F 19.4 °F 69% 30.36 in 10.0 mi WNW 12.7 mph - N/A   Mostly Cloudy
2:53 PM 28.0 °F 20.8 °F 18.0 °F 66% 30.54 in 10.0 mi West 6.9 mph - N/A   Mostly Cloudy
3:53 PM 28.0 °F - 18.0 °F 66% 30.52 in 10.0 mi Calm Calm - N/A   Clear
4:53 PM 17.1 °F 10.0 °F 12.0 °F 81% 30.54 in 10.0 mi SW 4.6 mph - N/A   Clear
5:53 PM 18.0 °F 8.7 °F 12.9 °F 81% 30.53 in 10.0 mi SSW 6.9 mph - N/A   Scattered Clouds
6:53 PM 17.1 °F 5.0 °F 10.9 °F 77% 30.54 in 10.0 mi SW 10.4 mph - N/A   Clear
7:53 PM 15.1 °F 4.2 °F 10.0 °F 80% 30.57 in 10.0 mi SW 8.1 mph - N/A   Clear
8:53 PM 14.0 °F 6.5 °F 9.0 °F 80% 30.58 in 10.0 mi South 4.6 mph - N/A   Clear
9:53 PM 10.9 °F 1.4 °F 7.0 °F 84% 30.58 in 10.0 mi SSW 5.8 mph - N/A   Clear
10:53 PM 10.0 °F 3.6 °F 7.0 °F 87% 30.58 in 10.0 mi WNW 3.5 mph - N/A   Clear
11:53 PM 8.1 °F -5.3 °F 5.0 °F 87% 30.58 in 10.0 mi SSW 9.2 mph - N/A   Clear